CDT,Max TemperatureF,Mean TemperatureF,Min TemperatureF,Max Dew PointF,MeanDew PointF,Min DewpointF,Max Humidity, Mean Humidity, Min Humidity, Max Sea Level PressureIn, Mean Sea Level PressureIn, Min Sea Level PressureIn, Max VisibilityMiles, Mean VisibilityMiles, Min VisibilityMiles, Max Wind SpeedMPH, Mean Wind SpeedMPH, Max Gust SpeedMPH,PrecipitationIn, CloudCover, Events, WindDirDegrees
2012-10-1,71,59,46,48,46,44,86,62,38,29.90,29.87,29.83,10,10,9,13,5,18,0.00,0,,47
2012-10-2,75,61,46,51,47,45,93,65,36,29.94,29.89,29.85,10,10,10,9,4,16,0.00,0,,354
2012-10-3,77,60,43,53,47,42,93,65,36,30.02,29.96,29.91,10,9,2,13,5,16,0.00,0,,195
2012-10-4,62,53,44,53,46,41,100,79,57,30.25,30.17,30.02,10,9,2,18,7,26,0.14,6,Rain-Thunderstorm,284
2012-10-5,46,38,30,42,34,30,92,75,58,30.30,30.27,30.25,10,10,10,15,6,21,T,5,Rain,329
2012-10-6,45,37,29,30,28,26,92,73,53,30.35,30.30,30.25,10,10,10,15,5,21,0.00,2,,315
2012-10-7,53,39,25,31,26,23,92,62,32,30.32,30.25,30.16,10,10,10,23,5,29,0.00,0,,263
2012-10-8,61,46,31,34,31,26,85,60,35,30.17,30.08,29.98,10,10,10,21,10,31,0.00,0,,201
2012-10-9,66,53,39,45,39,33,85,67,48,30.10,29.97,29.89,10,10,9,21,10,26,0.01,3,Rain,253
2012-10-10,59,43,27,31,28,24,92,60,28,30.30,30.21,30.12,10,10,10,18,7,24,0.00,0,,261
2012-10-11,70,54,38,49,38,30,76,58,40,30.26,30.16,30.08,10,10,10,20,9,24,0.00,2,,207
2012-10-12,60,50,39,45,36,28,66,54,41,30.40,30.29,30.15,10,10,10,18,11,24,0.00,5,,94
2012-10-13,69,61,53,64,60,46,100,89,77,30.12,29.89,29.71,10,5,1,26,13,37,2.13,7,Rain-Thunderstorm,178
2012-10-14,64,53,42,61,53,39,97,77,57,29.96,29.71,29.55,10,10,8,24,11,35,0.01,6,Rain-Thunderstorm,255
2012-10-15,69,54,38,46,41,37,100,69,37,30.04,29.98,29.90,10,10,10,9,4,12,0.00,0,,205
2012-10-16,79,63,46,52,47,43,93,65,37,29.89,29.65,29.52,10,10,10,26,13,40,0.00,0,,195
2012-10-17,66,58,49,57,48,34,93,73,52,29.56,29.48,29.41,10,9,2,20,10,25,0.14,4,Rain,247
2012-10-18,53,48,43,43,34,27,92,65,38,29.55,29.53,29.51,10,10,6,26,14,43,0.13,6,Rain,254
2012-10-19,51,47,42,45,42,39,96,88,80,29.81,29.66,29.51,10,9,2,20,10,25,0.04,8,Rain,284
2012-10-20,61,53,45,45,43,41,93,74,55,29.91,29.86,29.79,10,10,10,9,4,12,0.00,4,,158
2012-10-21,78,61,44,63,54,43,92,74,56,29.91,29.87,29.83,10,10,10,16,8,20,0.00,3,,142
2012-10-22,79,72,64,68,64,62,93,80,67,29.87,29.84,29.81,10,8,2,17,9,24,0.15,5,Rain-Thunderstorm,187
2012-10-23,73,68,62,65,63,61,93,83,73,29.91,29.85,29.78,10,8,2,21,12,30,1.12,7,Rain-Thunderstorm,186
2012-10-24,81,74,66,66,63,61,84,71,58,29.88,29.82,29.74,10,10,10,23,13,29,0.00,3,,186
2012-10-25,71,55,38,63,48,29,93,81,68,30.29,29.88,29.69,10,9,2,24,15,31,0.06,8,Rain,282
2012-10-26,48,39,30,29,27,25,78,64,49,30.45,30.40,30.28,10,10,10,18,9,25,0.00,1,,347
2012-10-27,45,36,26,27,25,22,92,71,49,30.44,30.38,30.32,10,10,10,15,6,20,0.00,0,,6
2012-10-28,49,38,26,27,23,20,85,60,34,30.38,30.34,30.31,10,10,10,12,4,17,0.00,0,,18
2012-10-29,46,36,25,33,28,24,92,71,49,30.39,30.31,30.21,10,10,10,9,3,13,0.00,3,,97
2012-10-30,56,40,24,29,27,21,92,62,32,30.20,30.09,30.00,10,10,9,16,7,18,0.00,0,,343
2012-10-31,54,42,30,28,23,14,85,54,22,30.07,30.03,30.01,10,10,10,13,6,20,0.00,0,,318